[[{"header":{"parameterUnit":"m.s-1","parameterCategory":1,"la1":30.2991,"la2":30.254,"lo1":-89.0895,"lo2":-89.0444,"dy":0.0017,"dx":0.0017,"nx":28,"ny":28,"refTime":"2023-10-27T03:00:00:Z","depth":0,"parameterNumber":2,"parameterNumberName":"U-component_of_WINDS"},"data":[0,0,0,0,0,0,0,0,0,0,0,0,0,0,0,0,0,0,0,0,0,0,0,0,0,0,0,0,0,0,0,0,0,0,0,0,0,0,0,0,0,0,0,0,0,0,0,0,0,0,0,0,0,0,0,0,0,0,-3.6156,-3.6156,0,-3.6148,-3.6148,-3.6148,-3.6075,-3.6074,-3.6072,-3.607,-3.6065,-3.6066,-3.6068,0,0,0,0,0,0,0,0,0,0,0,0,0,-3.6115,-3.6116,-3.6156,-3.6156,-3.6156,-3.6148,-3.6148,-3.6148,-3.6076,-3.6073,-3.6071,-3.6069,-3.6064,-3.6066,-3.6068,0,0,0,0,0,0,0,0,0,0,0,0,0,-3.6123,-3.6116,-3.6156,-3.6119,-3.6115,-3.6148,-3.6148,-3.6148,-3.6076,-3.6073,-3.6071,-3.6068,-3.6064,-3.6066,-3.6068,-3.6137,0,0,-3.6075,-3.6076,0,0,0,0,0,0,0,0,-3.6122,-3.6124,-3.6124,-3.6121,-3.6118,-3.611,-3.6131,-3.6144,-3.6077,-3.6091,-3.607,-3.6067,-3.6082,-3.6083,-3.6087,-3.6136,-3.6136,-3.6075,-3.6077,-3.6078,-3.6078,0,0,0,0,0,0,0,-3.6122,-3.6124,-3.6153,-3.6124,-3.612,-3.6105,-3.6103,-3.6134,-3.6102,-3.609,-3.6084,-3.6084,-3.608,-3.6085,-3.6087,-3.6136,-3.6075,-3.6077,-3.6079,-3.608,-3.6247,-3.625,0,0,0,0,0,0,-3.6126,-3.6124,-3.6153,-3.6153,-3.6113,-3.6108,-3.6105,-3.6115,-3.6101,-3.6097,-3.6087,-3.6081,-3.6083,-3.6084,-3.6086,-3.6168,-3.6078,-3.608,-3.6081,-3.6244,-3.6248,-3.6251,0,0,0,0,0,0,-3.6125,-3.6129,-3.6153,-3.6137,-3.6139,-3.6111,-3.6123,-3.6116,-3.6121,-3.6099,-3.6094,-3.6097,-3.608,-3.6083,-3.6126,-3.6167,-3.6081,-3.6083,-3.624,-3.6245,-3.6249,-3.6331,0,0,0,0,0,0,-3.6124,-3.6129,-3.6153,-3.6138,-3.614,-3.6191,-3.6125,-3.6118,-3.6125,-3.6118,-3.6108,-3.6104,-3.6079,-3.6123,-3.6128,-3.6169,-3.6085,-3.6237,-3.6243,-3.6248,-3.6325,-3.6338,-3.635,0,0,0,0,0,-3.6123,-3.6176,-3.6154,-3.6158,-3.6169,-3.6193,-3.6195,-3.6164,-3.6129,-3.6154,-3.6141,-3.6104,-3.6162,-3.6128,-3.6133,-3.6175,-3.6234,-3.6241,-3.6248,-3.6319,-3.6336,-3.6349,0,0,0,0,0,0,-3.6195,-3.6173,-3.6149,-3.6198,-3.6199,-3.6181,-3.6211,-3.6182,-3.6192,-3.6185,-3.6147,-3.6146,-3.6195,-3.619,-3.6152,-3.6244,-3.6192,-3.62,-3.6245,-3.626,-3.6272,-3.6272,-3.6087,0,0,0,0,0,-3.6218,-3.6238,-3.6218,-3.6263,-3.6265,-3.6239,-3.6248,-3.6225,-3.6224,-3.6224,-3.6213,-3.6215,-3.6234,-3.6247,-3.6263,-3.6325,-3.6324,-3.6357,-3.637,-3.638,-3.6387,-3.6424,-3.6439,-3.6274,-3.6274,-3.6273,0,0,-3.6262,-3.6253,-3.6267,-3.6278,-3.6275,-3.6299,-3.6239,-3.6266,-3.6284,-3.6228,-3.6268,-3.6261,-3.6261,-3.6315,-3.6338,-3.6312,-3.6433,-3.6389,-3.6397,-3.6398,-3.6433,-3.6448,-3.6462,-3.6278,-3.6277,-3.6277,0,0,-3.6356,-3.635,-3.6389,-3.6389,-3.6386,-3.637,-3.638,-3.6368,-3.6361,-3.6401,-3.6361,-3.6384,-3.6416,-3.6419,-3.6425,-3.6528,-3.6496,-3.6535,-3.6599,-3.6635,-3.6648,-3.6659,-3.6698,-3.6713,-3.6542,-3.6543,-3.6543,0,-3.6412,-3.6445,-3.6413,-3.6444,-3.6451,-3.6403,-3.6444,-3.6446,-3.6449,-3.6457,-3.6427,-3.6471,-3.6467,-3.6523,-3.6549,-3.6554,-3.6567,-3.6534,-3.6649,-3.666,-3.667,-3.6707,-3.6721,-3.6547,-3.6547,-3.6546,-3.6546,0,-3.6516,-3.654,-3.6572,-3.6578,-3.6589,-3.6625,-3.6601,-3.6617,-3.6595,-3.6582,-3.6627,-3.6622,-3.6638,-3.665,-3.6627,-3.6704,-3.6688,-3.6655,-3.6602,-3.6691,-3.6725,-3.6739,-3.6554,-3.6552,-3.6551,-3.655,0,0,-3.665,-3.6641,-3.6654,-3.6657,-3.6654,-3.6673,-3.671,-3.6726,-3.6742,-3.6748,-3.6779,-3.6811,-3.6781,-3.6788,-3.6767,-3.6799,-3.6885,-3.6762,-3.6762,-3.6786,-3.6973,-3.6998,-3.7015,-3.6865,-3.6867,-3.6869,-3.6973,0,-3.6742,-3.6801,-3.6776,-3.6838,-3.6863,-3.6821,-3.6853,-3.6857,-3.6848,-3.6869,-3.686,-3.6884,-3.6842,-3.6847,-3.6877,-3.6868,-3.6922,-3.686,-3.6895,-3.6897,-3.6896,-3.7032,-3.7057,-3.7155,-3.6986,-3.6989,-3.699,0,-3.6854,-3.6866,-3.6932,-3.6929,-3.6938,-3.6967,-3.6983,-3.7003,-3.7008,-3.7,-3.7011,-3.6985,-3.7024,-3.6974,-3.7029,-3.6988,-3.7002,-3.7001,-3.7004,-3.7005,-3.6948,-3.7038,-3.7186,-3.7201,-3.701,-3.7009,-3.7007,0,-3.6948,-3.6981,-3.7025,-3.7029,-3.7027,-3.7049,-3.7049,-3.7052,-3.7065,-3.708,-3.7089,-3.7108,-3.7119,-3.7136,-3.7118,-3.7082,-3.7177,-3.7124,-3.7173,-3.7174,-3.7193,-3.7192,-3.7346,-3.7203,-3.7203,-3.7203,-3.7202,0,-3.7052,-3.7094,-3.7067,-3.7094,-3.7142,-3.7115,-3.7164,-3.716,-3.7164,-3.7192,-3.7158,-3.7186,-3.716,-3.7186,-3.7173,-3.7223,-3.7227,-3.7224,-3.722,-3.7227,-3.7227,-3.7234,-3.7227,-3.7207,-3.7206,-3.7205,-3.7204,0,-3.7162,-3.7146,-3.7192,-3.7187,-3.7188,-3.7223,-3.7221,-3.7247,-3.7239,-3.7275,-3.7282,-3.7269,-3.7299,-3.7283,-3.7314,-3.7305,-3.737,-3.7357,-3.7368,-3.7364,-3.7415,-3.7411,-3.7579,-3.7601,-3.7444,-3.7445,-3.7446,0,-3.7229,-3.7261,-3.7261,-3.7277,-3.728,-3.7307,-3.7321,-3.7298,-3.7315,-3.7327,-3.7353,-3.7381,-3.7401,-3.7452,-3.7447,-3.7472,-3.7459,-3.7516,-3.7462,-3.747,-3.7461,-3.746,-3.7464,-3.7526,-3.7528,-3.753,-3.7531,0,-3.735,-3.7342,-3.7362,-3.7383,-3.7401,-3.7416,-3.7427,-3.7444,-3.7422,-3.7443,-3.7474,-3.749,-3.7524,-3.7552,-3.7576,-3.7579,-3.7553,-3.7549,-3.7562,-3.7569,-3.7574,-3.7574,-3.7398,-3.7544,-3.7543,-3.7542,-3.7541,-3.7541,-3.7441,-3.7469,-3.7475,-3.7501,-3.7508,-3.7522,-3.7548,-3.7544,-3.7569,-3.7594,-3.758,-3.7617,-3.7628,-3.7656,-3.7664,-3.7695,-3.7672,-3.769,-3.7695,-3.77,-3.7708,-3.7571,-3.7699,-3.7698,-3.7698,-3.7698,-3.7698,0,-3.7561,-3.7565,-3.7589,-3.7608,-3.763,-3.7605,-3.7618,-3.7639,-3.7671,-3.7683,-3.7705,-3.7744,-3.7773,-3.7772,-3.7801,-3.7826,-3.7815,-3.7834,-3.7832,-3.7834,-3.7725,-3.7711,-3.7843,-3.7843,-3.7843,-3.7843,-3.7843,-3.7843,-3.7626,-3.7673,-3.7667,-3.7719,-3.7723,-3.7758,-3.7769,-3.7783,-3.7792,-3.7836,-3.7861,-3.786,-3.7869,-3.7899,-3.7926,-3.7926,-3.7938,-3.7962,-3.7957,-3.7855,-3.7841,-3.7827,-3.7814,-3.7965,-3.7965,-3.8064,-3.8065,-3.8065]},{"header":{"parameterUnit":"m.s-1","parameterCategory":1,"la1":30.2991,"la2":30.254,"lo1":-89.0895,"lo2":-89.0444,"dy":0.0017,"dx":0.0017,"nx":28,"ny":28,"refTime":"2023-10-27T03:00:00:Z","depth":0,"parameterNumber":3,"parameterNumberName":"V-component_of_WINDS"},"data":[0,0,0,0,0,0,0,0,0,0,0,0,0,0,0,0,0,0,0,0,0,0,0,0,0,0,0,0,0,0,0,0,0,0,0,0,0,0,0,0,0,0,0,0,0,0,0,0,0,0,0,0,0,0,0,0,0,0,0.6141,0.6141,0,0.6162,0.6162,0.6163,0.6269,0.6271,0.6274,0.6276,0.6293,0.6291,0.6289,0,0,0,0,0,0,0,0,0,0,0,0,0,0.6187,0.6186,0.6141,0.6141,0.6141,0.6162,0.6162,0.6163,0.6268,0.6271,0.6274,0.6277,0.6293,0.6291,0.6289,0,0,0,0,0,0,0,0,0,0,0,0,0,0.6183,0.6185,0.6141,0.6196,0.6202,0.6162,0.6162,0.6163,0.6267,0.6271,0.6275,0.6279,0.6294,0.6291,0.6288,0.6195,0,0,0.628,0.6279,0,0,0,0,0,0,0,0,0.6183,0.6181,0.6188,0.6193,0.6198,0.6217,0.6185,0.6173,0.6267,0.6242,0.6276,0.628,0.6264,0.6264,0.6259,0.6196,0.6197,0.628,0.6278,0.6277,0.6276,0,0,0,0,0,0,0,0.6183,0.6181,0.6149,0.6188,0.6194,0.6219,0.6223,0.6183,0.6231,0.6245,0.6252,0.6254,0.6268,0.6262,0.6261,0.6197,0.628,0.6277,0.6275,0.6274,0.6058,0.6055,0,0,0,0,0,0,0.6176,0.6181,0.6148,0.615,0.62,0.6215,0.6219,0.6207,0.6232,0.624,0.6251,0.6259,0.6265,0.6264,0.6262,0.6154,0.6277,0.6274,0.6272,0.6062,0.6058,0.6053,0,0,0,0,0,0,0.6177,0.6173,0.6148,0.6167,0.6166,0.6211,0.6196,0.6205,0.62,0.6237,0.6245,0.6236,0.6268,0.6266,0.6211,0.6156,0.6273,0.627,0.6067,0.6061,0.6055,0.5937,0,0,0,0,0,0,0.6178,0.6172,0.6138,0.6166,0.6165,0.6097,0.6192,0.6203,0.6195,0.6206,0.6226,0.6232,0.6271,0.6215,0.6208,0.6154,0.6268,0.6072,0.6064,0.6057,0.5946,0.5928,0.5912,0,0,0,0,0,0.6179,0.6102,0.6136,0.6131,0.6123,0.6094,0.6093,0.614,0.619,0.6156,0.618,0.6232,0.6164,0.6209,0.6202,0.6146,0.6076,0.6067,0.6058,0.5954,0.5931,0.5913,0,0,0,0,0,0,0.6064,0.6107,0.6144,0.6074,0.608,0.6112,0.607,0.6115,0.6105,0.6115,0.6173,0.6177,0.6113,0.6125,0.6174,0.6057,0.6129,0.6118,0.6052,0.6031,0.6014,0.6012,0.6265,0,0,0,0,0,0.6031,0.6006,0.6044,0.5979,0.598,0.6024,0.6013,0.605,0.6057,0.6059,0.6079,0.6083,0.6063,0.6048,0.6031,0.5949,0.5954,0.5908,0.5891,0.5876,0.5866,0.5823,0.5802,0.6024,0.6024,0.6024,0,0,0.5962,0.5982,0.5962,0.5956,0.5965,0.5936,0.6025,0.5991,0.5969,0.6054,0.6004,0.6019,0.6027,0.5958,0.5929,0.5966,0.5806,0.5865,0.5853,0.585,0.5811,0.579,0.5772,0.6017,0.6019,0.602,0,0,0.582,0.5833,0.5781,0.5788,0.5801,0.5832,0.5819,0.5844,0.5858,0.581,0.5872,0.5848,0.5811,0.5815,0.5811,0.5673,0.572,0.5667,0.5576,0.5534,0.5517,0.5501,0.5451,0.5432,0.5656,0.5656,0.5656,0,0.5731,0.5692,0.5747,0.5709,0.5704,0.5782,0.5728,0.5732,0.5738,0.5732,0.5774,0.5731,0.5742,0.5675,0.5642,0.5637,0.5623,0.5663,0.5515,0.55,0.5487,0.5439,0.542,0.5649,0.565,0.5651,0.5651,0,0.5581,0.5553,0.5509,0.5515,0.5505,0.5459,0.5507,0.549,0.5528,0.5553,0.5503,0.552,0.5508,0.5495,0.553,0.5433,0.5455,0.5505,0.5578,0.5458,0.5414,0.5396,0.5639,0.5642,0.5644,0.5646,0,0,0.5365,0.5404,0.5387,0.5391,0.5412,0.539,0.5348,0.5339,0.5323,0.5325,0.529,0.5258,0.5305,0.5301,0.5338,0.5301,0.519,0.5356,0.5357,0.5323,0.5082,0.5043,0.5021,0.5223,0.522,0.5217,0.5081,0,0.5228,0.5159,0.5209,0.5131,0.5105,0.518,0.5143,0.5151,0.5174,0.5155,0.518,0.5157,0.5221,0.5219,0.5186,0.521,0.5142,0.5221,0.5188,0.5186,0.5182,0.4999,0.4957,0.4828,0.5065,0.5062,0.506,0,0.5059,0.5056,0.4975,0.5003,0.4994,0.496,0.4956,0.4937,0.4948,0.4967,0.4964,0.5011,0.4971,0.5044,0.4988,0.5041,0.5031,0.5041,0.5037,0.5033,0.5114,0.4988,0.4788,0.4767,0.5033,0.5036,0.5037,0,0.4907,0.4883,0.4832,0.4833,0.4864,0.4839,0.485,0.4865,0.4856,0.4852,0.4847,0.4838,0.4832,0.4823,0.4866,0.4915,0.4803,0.4881,0.4817,0.4815,0.4787,0.4788,0.458,0.4784,0.4785,0.4785,0.4785,0,0.4748,0.4695,0.4764,0.4732,0.4676,0.4734,0.4676,0.4695,0.4708,0.468,0.4745,0.4717,0.4777,0.4755,0.4788,0.4736,0.4733,0.4746,0.4755,0.4739,0.4737,0.4731,0.4741,0.478,0.4781,0.4782,0.4783,0,0.4567,0.4612,0.4561,0.4596,0.4603,0.456,0.4589,0.456,0.459,0.4554,0.4548,0.4593,0.4571,0.4614,0.4596,0.4619,0.4545,0.4569,0.4541,0.4548,0.4481,0.4485,0.426,0.4233,0.4456,0.4454,0.4452,0,0.4462,0.4424,0.4455,0.4442,0.4451,0.4429,0.4422,0.4477,0.4466,0.4477,0.4446,0.4431,0.442,0.4381,0.4411,0.4398,0.4421,0.4343,0.4419,0.4404,0.4417,0.4418,0.4414,0.4326,0.4323,0.4321,0.4319,0,0.4269,0.4294,0.4281,0.4276,0.4265,0.4264,0.4266,0.4252,0.4311,0.4295,0.4275,0.4267,0.4251,0.4233,0.4228,0.4239,0.4287,0.4296,0.428,0.4262,0.4246,0.4252,0.4496,0.43,0.4302,0.4303,0.4304,0.4305,0.4122,0.4091,0.4109,0.4093,0.4102,0.4103,0.4078,0.4105,0.4089,0.4082,0.4116,0.4087,0.41,0.4098,0.4104,0.4081,0.4116,0.4093,0.4087,0.408,0.4068,0.4252,0.4081,0.4081,0.4082,0.4082,0.4083,0,0.3931,0.3947,0.3932,0.3935,0.3922,0.3973,0.3979,0.3964,0.3939,0.3947,0.3937,0.3913,0.3897,0.3926,0.3914,0.389,0.3912,0.3885,0.3886,0.3887,0.4039,0.4053,0.3867,0.3867,0.3867,0.3867,0.3868,0.3868,0.383,0.3781,0.3808,0.3764,0.378,0.3754,0.3753,0.3754,0.3761,0.3732,0.372,0.3741,0.3757,0.3748,0.3734,0.3744,0.3735,0.3699,0.3715,0.3856,0.3877,0.3897,0.391,0.3697,0.3697,0.3566,0.3565,0.3564]}]]